Regional Weather Roundup
Issued by NWS

Home | Current Version | Previous Version | Graphics & Text | Print | Product List | Glossary On
Versions: 1 2 3 4 5 6 7 8 9 10 11 12 13 14 15 16 17 18 19 20 21 22 23 24 25 26 27 28 29 30 31 32 33 34 35 36 37 38 39 40 41 42 43 44 45 46 47 48 49 50
000
ASUS43 KFSD 262102
RWRSD

WEATHER ROUNDUP FOR SOUTH DAKOTA
NATIONAL WEATHER SERVICE SIOUX FALLS SD
300 PM CST THU FEB 26 2015

NOTE: "FAIR" INDICATES FEW OR NO CLOUDS BELOW 12,000 FEET WITH NO
SIGNIFICANT WEATHER AND/OR OBSTRUCTIONS TO VISIBILITY.


SDZ001>005-009-010-012>017-262200-
NORTHWEST AND NORTH CENTRAL SOUTH DAKOTA

CITY           SKY/WX    TMP DP  RH WIND       PRES   REMARKS
BUFFALO          N/A     10  -5  50 N9        30.35F WCI  -3
FAITH            N/A     13  -5  44 N7G17     30.44S WCI   3
MOBRIDGE       SUNNY      9  -6  50 N12       30.50F WCI  -6
$$

SDZ012>016-024>037-041>051-057-063-072>074-262200-
SOUTHWEST AND SOUTH CENTRAL SOUTH DAKOTA

CITY           SKY/WX    TMP DP  RH WIND       PRES   REMARKS
RAPID CTY ARPT SUNNY      9  -2  61 N15       30.39F WCI  -8
PIERRE         SUNNY     12  -4  48 N13       30.51F WCI  -3
CUSTER         SNOW       6   0  76 SE7       30.13S VSB 1/2 WCI  -6
PHILIP         SUNNY     15  -5  40 N8        30.47F WCI   4
PINE RIDGE     MOSUNNY   12  -3  51 N10       30.37F WCI  -1
WINNER         MOCLDY    12  -3  51 N13G21    30.48F WCI  -3
$$

SDZ004>011-016>023-039-040-262200-
NORTHEAST SOUTH DAKOTA

CITY           SKY/WX    TMP DP  RH WIND       PRES   REMARKS
ABERDEEN       SUNNY      6  -7  54 N15       30.55F WCI -12
WATERTOWN      PTSUNNY    2  -6  69 NW16      30.45F WCI -18
SISSETON         N/A      3  -6  66 N17       30.52F WCI -17
$$

SDZ017-020-022-023-036>040-048>070-262200-
SOUTHEAST SOUTH DAKOTA

CITY           SKY/WX    TMP DP  RH WIND       PRES   REMARKS
SIOUX FALLS    PTSUNNY    5  -5  63 NW16      30.48F WCI -14
HURON          PTSUNNY    4  -5  66 NW13      30.55F WCI -13
MITCHELL       MOSUNNY    8  -4  58 N15G23    30.55S WCI  -9
YANKTON        PTSUNNY   10  -2  56 N21       30.53S WCI  -9
$$

ABBREVIATIONS USED IN REMARKS
   TC - TEMPERATURE IN CELSIUS
  WCI - WIND CHILL INDEX
   HX - HEAT INDEX
  VSB - VISIBILITY




USA.gov is the U.S. government's official web portal to all federal, state and local government web resources and services.